Tracking 31027 objects as of 19-Jul-2025
HD Live streaming from Space Station
objects crossing your sky now

STARLINK-31306

Track STARLINK-31306 now!
10-day predictions
STARLINK-31306 is classified as:


NORAD ID: 58876
Int'l Code: 2024-020A
Perigee: 481.6 km
Apogee: 483.2 km
Inclination: 53.2 °
Period: 94.1 minutes
Semi major axis: 6853 km
RCS: Unknown
Launch date: January 29, 2024
Source: United States (US)
Launch site: AIR FORCE WESTERN TEST RANGE (AFWTR)
Your satellite tracking list
STARLINK-30236
Track 1 satellite(s)




NASA's NSSDC Master Catalog

Two Line Element Set (TLE):
1 58876U 24020A   25199.66126470 -.00001233  00000-0 -29537-4 0  9991
2 58876  53.1610 329.2255 0001134  84.8114 275.3016 15.30177691 83415
Source of the keplerian elements: AFSPC